Theta_e
294 290 288 292 291 291 289 287 287 290 294 291 290 291 293 292 290 290 290 291 291 292 292 294 296 297 298 299 300 301 303 303 303 301 299 297 294 294 294 294 292 293 293 293
291 288 294 295 293 291 290 287 288 290 293 291 290 289 291 292 292 293 293 292 293 290 290 293 294 295 297 299 300 301 303 303 303 301 296 294 292 291 291 291 290 290 290 289
290 293 296 295 292 290 289 288 287 289 290 289 287 287 289 292 293 293 295 296 295 293 290 292 293 294 295 297 300 302 303 303 297 293 292 290 290 290 289 288 287 287 288 288
292 296 294 292 291 292 287 292 291 290 287 283 287 282 287 290 291 291 295 294 294 291 292 293 294 294 296 298 304 305 303 297 295 294 292 291 290 288 287 284 285 286 286 286
290 292 292 290 292 294 290 292 290 288 285 282 282 281 285 289 289 292 295 293 292 291 291 292 294 296 297 299 299 300 297 296 294 294 293 291 288 286 285 284 284 283 284 284
291 293 294 294 293 294 293 290 289 286 284 279 285 284 285 287 291 292 296 293 291 290 291 293 294 295 294 295 295 297 295 294 294 292 290 289 286 284 284 283 282 282 282 283
289 290 291 293 290 291 291 288 280 279 277 279 284 282 289 290 293 293 295 292 289 290 290 291 291 293 292 292 294 295 294 292 291 290 288 288 286 285 284 283 282 282 281 280
285 282 290 292 292 289 288 287 281 274 276 279 282 280 286 291 293 294 292 291 289 288 290 290 292 292 291 291 292 292 291 289 289 288 287 286 285 284 284 283 282 282 281 281
284 284 289 290 292 294 287 285 290 285 272 275 282 285 291 290 291 290 292 288 286 288 289 289 290 290 290 289 290 290 290 288 288 287 286 285 285 284 283 282 282 281 281 281
290 283 287 288 292 291 289 291 283 282 273 273 280 281 286 288 289 291 289 287 286 287 286 287 288 288 288 287 287 288 289 287 286 286 286 285 285 284 283 282 281 281 281 281
293 289 284 287 286 287 286 285 286 286 281 276 274 283 289 291 291 290 291 288 287 287 286 286 286 287 286 285 285 285 285 285 285 286 286 284 284 283 283 281 281 281 280 279
293 291 280 284 287 288 288 288 287 283 279 282 280 286 289 291 292 292 292 289 288 288 286 286 285 285 284 283 284 284 284 284 285 285 284 284 283 282 281 280 280 280 279 279
294 289 281 282 286 287 286 289 292 288 283 284 279 285 287 288 290 289 290 287 288 287 285 285 284 284 284 284 284 283 283 284 283 283 283 282 281 281 280 279 279 279 279 278
298 289 286 285 285 287 284 285 288 290 284 284 285 290 290 287 289 289 288 287 287 287 285 285 284 284 285 284 283 283 284 284 283 283 282 281 281 281 280 280 279 279 278 278
296 288 289 290 287 286 284 287 288 287 289 286 289 289 294 294 291 293 290 288 286 286 285 285 285 285 284 284 283 284 284 284 284 283 282 282 282 281 280 279 279 279 278 278
295 288 289 287 289 288 286 288 285 288 290 290 291 290 294 294 293 291 291 289 287 288 287 287 287 286 285 285 284 284 284 284 284 283 282 282 281 281 280 280 279 278 278 277
290 288 285 285 288 287 283 288 290 290 289 289 286 292 296 290 292 293 293 290 289 289 289 288 287 287 286 285 285 284 284 284 283 283 283 282 282 281 280 280 279 278 277 276
287 287 287 285 285 278 287 290 293 292 293 294 292 293 294 293 295 296 292 290 290 291 291 290 289 288 287 287 285 285 284 283 283 283 283 282 282 281 280 279 278 277 277 276
291 287 284 283 283 284 286 284 285 286 288 293 293 295 296 297 289 294 291 292 293 292 293 292 291 289 288 286 285 283 282 283 282 282 282 282 282 281 280 279 278 277 276 276
286 290 286 283 280 279 281 280 283 289 284 282 292 294 292 287 285 293 291 289 290 291 289 288 286 285 284 284 284 282 282 282 282 282 283 283 283 282 281 280 279 278 278 277
280 280 282 283 282 283 285 281 283 282 282 276 279 280 285 285 289 285 286 287 286 286 286 286 286 284 284 283 283 282 282 281 283 283 283 282 282 283 282 281 279 278 276 275
280 280 279 281 279 278 284 281 284 284 280 280 282 282 283 284 284 283 284 284 285 285 285 284 283 283 283 283 284 282 282 284 283 283 282 282 283 283 282 281 280 276 276 274
278 282 280 283 283 282 281 284 283 284 284 282 282 283 282 281 281 281 282 282 282 282 282 283 284 283 283 284 285 285 284 282 282 282 282 282 282 282 281 280 277 275 275 274
280 281 279 282 281 281 282 282 284 282 281 281 281 281 282 280 280 280 280 281 281 280 280 279 280 279 278 280 281 281 279 279 281 281 280 279 279 277 277 278 276 275 273 273
280 281 278 279 281 281 282 283 285 282 281 280 280 281 281 280 279 279 278 277 279 277 277 277 279 279 277 276 275 274 277 279 278 277 274 274 274 274 272 272 273 274 270 274
279 280 280 280 284 284 283 283 285 285 282 281 280 279 279 279 279 278 277 278 277 276 275 276 275 275 272 273 272 272 273 275 273 271 271 271 271 269 269 268 266 274 273 276
Wind_Speed
0 4 8 14 10 4 4 4 5 4 4 6 9 12 14 10 7 9 10 13 14 15 8 8 8 7 7 6 7 7 10 9 8 8 8 6 6 5 6 6 7 7 6 7
4 8 16 5 5 6 5 5 9 7 5 7 8 13 10 6 11 15 19 16 17 9 10 10 9 8 8 9 8 8 10 10 7 5 5 5 6 5 5 5 7 6 7 6
10 8 8 9 6 6 8 9 5 9 3 3 5 9 8 10 10 8 19 18 16 19 17 13 11 10 8 9 10 10 11 10 7 9 10 8 9 7 5 5 5 5 7 7
8 6 6 7 7 9 8 8 5 5 1 6 4 11 6 7 12 9 18 16 16 14 15 15 15 13 11 10 11 12 11 10 11 12 11 15 10 10 3 3 4 6 7 8
10 7 8 6 7 10 7 3 5 2 3 2 3 6 5 5 9 13 19 14 14 17 20 19 18 16 12 11 11 11 11 11 12 11 10 8 8 9 8 6 9 7 6 7
3 1 7 9 3 7 7 5 6 4 2 6 11 10 6 8 14 8 14 9 15 16 16 15 12 12 11 8 8 11 13 11 11 11 10 11 17 14 11 9 8 6 5 4
3 6 3 5 6 3 5 7 3 4 1 10 4 7 16 5 7 11 15 10 13 14 16 16 16 15 13 13 12 11 13 11 11 12 11 13 14 15 15 13 9 10 6 3
10 7 13 7 11 9 9 10 9 9 6 6 1 11 9 10 9 9 8 7 9 11 14 16 18 16 16 14 13 13 12 12 12 13 13 11 11 8 9 9 10 8 6 7
8 8 1 1 4 14 7 10 6 2 2 2 7 9 10 8 9 9 15 5 9 12 14 14 14 14 15 14 14 14 13 12 13 13 12 12 10 11 11 11 8 7 8 7
6 3 1 1 4 4 6 8 3 1 2 7 6 8 13 5 10 14 8 8 9 8 9 11 13 14 12 12 11 11 13 15 13 13 13 12 12 11 12 11 12 11 9 9
5 5 1 4 7 13 4 5 3 5 6 6 3 11 8 11 11 8 10 9 10 12 14 14 12 11 11 10 11 12 12 13 13 14 13 13 12 12 11 11 11 11 10 10
11 1 5 9 2 2 2 7 7 6 6 7 3 19 4 7 7 9 8 8 10 12 13 12 12 13 12 12 11 11 10 12 12 11 11 13 12 12 11 11 11 11 12 9
10 5 1 4 2 1 7 9 18 3 4 16 7 16 2 1 2 2 6 4 6 9 10 11 12 14 14 13 13 12 11 12 11 11 12 10 11 12 12 13 12 11 11 10
6 6 10 13 5 7 10 9 13 18 10 7 21 28 12 5 3 4 3 5 9 10 13 13 13 14 15 15 15 14 14 13 12 12 13 13 13 14 13 13 12 11 10 11
11 9 14 21 2 4 4 16 19 23 32 13 31 18 31 14 9 11 7 7 8 11 14 16 16 15 16 16 17 15 14 13 14 14 14 15 13 11 10 12 12 11 11 10
6 6 10 21 13 8 6 8 12 20 23 20 28 29 5 6 5 5 11 10 13 15 18 18 18 17 19 20 19 18 18 17 16 15 14 12 11 11 11 11 11 11 10 9
9 7 5 14 8 8 7 34 22 16 13 20 23 36 17 7 10 13 14 12 14 16 19 18 21 20 18 20 19 19 18 16 16 16 14 13 13 13 12 11 11 12 11 9
9 11 6 9 7 12 13 7 22 27 27 27 24 29 22 16 19 19 5 10 16 15 15 17 16 18 18 16 16 15 16 17 17 15 14 13 14 13 11 11 11 9 8 11
8 7 5 6 10 5 11 6 10 12 21 20 24 29 28 22 7 22 9 13 14 16 16 16 14 13 14 17 16 15 14 15 15 15 15 14 14 13 12 13 12 10 9 8
1 8 9 4 5 8 4 2 2 7 14 4 15 24 16 7 5 18 4 7 10 10 7 9 9 9 13 14 16 17 16 17 17 16 16 15 14 14 14 13 13 9 8 10
5 3 13 12 7 5 6 4 1 6 7 3 3 3 6 6 7 6 7 6 4 2 7 9 12 14 14 14 15 15 14 16 15 11 10 12 13 14 14 12 9 11 10 7
11 10 6 4 6 9 9 4 10 5 2 2 2 2 4 6 6 4 4 4 5 7 7 7 9 7 7 11 13 12 13 10 9 12 13 12 13 11 10 12 11 9 9 9
4 6 8 10 8 2 2 6 4 3 5 4 2 2 3 3 2 1 1 3 5 5 5 5 7 9 5 6 7 10 6 8 10 11 12 12 12 11 11 13 11 8 9 8
3 0 2 3 2 2 1 1 1 1 1 1 3 2 2 3 2 0 2 2 3 2 4 3 7 7 6 6 6 6 7 9 11 11 10 9 11 9 8 7 7 8 8 8
3 4 5 5 3 3 6 5 5 4 1 0 1 2 2 2 1 1 2 2 4 3 3 4 6 5 5 5 5 3 7 9 8 6 6 6 4 7 6 4 6 7 2 7
6 8 6 6 3 2 1 2 9 9 6 5 2 2 2 1 4 4 4 3 3 3 3 5 4 7 4 6 5 4 4 6 7 5 5 4 5 4 4 5 2 5 5 10
Wind_Direction
137 118 201 209 200 174 172 194 243 250 219 181 226 241 255 210 231 236 227 222 218 218 187 181 180 171 168 175 164 167 146 151 143 134 126 112 107 102 86 80 69 66 80 86
66 225 227 155 195 223 242 247 259 293 241 184 255 250 245 206 223 219 225 223 218 189 182 181 177 176 180 177 176 167 157 159 157 133 105 105 118 87 86 87 72 75 82 80
177 212 164 168 180 187 232 218 231 231 341 258 321 270 233 243 230 225 234 230 218 204 182 180 179 185 180 183 176 171 163 159 128 120 114 106 104 106 104 85 80 55 80 79
236 224 158 169 200 173 231 210 199 239 130 252 142 282 233 246 242 225 240 225 217 186 183 179 179 184 185 184 176 169 157 145 140 142 143 151 147 140 120 107 101 86 72 84
232 183 186 187 197 172 231 176 201 232 201 349 214 281 262 214 250 247 247 225 206 192 182 180 183 180 179 172 168 162 148 149 150 150 156 142 124 109 119 114 107 95 81 71
227 165 167 194 121 169 146 84 48 51 48 260 215 207 189 200 222 245 251 221 196 187 186 178 173 163 167 158 155 156 152 154 154 149 144 149 138 139 135 134 125 118 101 96
137 211 201 158 110 70 130 119 293 322 328 245 294 227 253 286 243 222 250 230 198 181 175 167 167 171 167 167 164 159 158 155 150 147 144 150 146 146 146 144 140 135 132 134
187 273 171 195 191 167 196 163 163 214 212 269 356 243 253 229 276 256 266 266 170 176 181 177 176 173 171 171 166 161 161 151 152 149 148 148 148 148 145 146 146 143 142 134
174 260 152 180 151 160 198 213 169 356 90 4 225 280 275 253 275 264 254 146 174 184 185 178 171 174 173 173 172 165 160 156 159 153 149 153 152 154 153 145 143 143 133 139
213 277 34 144 103 31 157 166 101 9 216 255 270 269 236 230 239 252 265 210 198 173 167 174 177 177 175 173 165 162 165 164 160 157 160 160 159 156 153 150 149 143 140 139
193 163 234 118 207 170 149 190 178 139 158 192 294 261 215 212 217 237 253 220 185 184 183 181 178 177 173 166 167 167 167 160 162 163 162 159 160 156 152 153 147 149 146 152
198 185 180 201 226 270 329 207 161 159 216 236 159 263 177 172 196 203 256 209 191 186 180 178 175 169 171 173 173 171 166 165 166 160 156 161 156 153 152 154 154 156 156 155
176 184 9 308 352 25 215 209 207 104 73 223 156 258 60 314 263 282 244 210 173 169 170 176 175 180 178 177 176 175 173 170 161 154 157 155 157 160 164 163 160 157 152 153
147 166 196 223 182 147 193 204 204 207 231 201 233 263 220 201 186 253 252 190 190 180 183 186 191 190 183 178 178 178 178 173 165 163 162 164 173 174 171 163 161 160 162 159
153 234 223 244 164 149 214 210 205 207 228 202 252 243 260 241 227 244 215 196 177 188 193 198 197 191 186 182 178 178 181 176 172 173 175 180 171 172 165 161 163 161 166 170
159 240 205 258 225 216 254 252 218 229 240 238 257 261 121 186 224 210 219 195 199 203 209 203 196 192 192 190 186 178 177 177 175 179 184 173 170 165 172 167 166 167 170 166
165 187 182 247 197 204 227 234 230 230 228 222 234 246 252 259 242 243 237 207 206 209 212 204 202 198 193 192 186 186 178 169 175 178 177 176 174 175 176 170 171 177 176 164
175 186 198 247 141 215 240 184 221 221 235 230 243 255 256 244 253 264 214 202 218 214 215 209 201 198 194 184 183 176 172 171 174 178 177 173 174 175 171 172 182 175 175 181
210 174 209 215 222 299 289 196 160 166 247 230 228 245 254 261 336 277 212 226 227 209 215 211 198 186 173 174 170 163 164 171 175 178 178 178 176 172 174 182 184 179 177 185
222 229 206 184 217 218 283 279 145 106 261 216 207 232 253 111 254 272 270 234 243 220 191 165 142 133 156 165 158 160 169 175 185 183 183 174 173 176 184 190 186 180 191 198
144 183 216 227 241 261 238 180 214 144 249 274 163 184 165 192 220 306 322 314 347 108 128 124 138 156 165 158 160 169 168 185 184 167 162 167 179 183 190 186 176 188 191 179
167 172 187 190 216 240 154 104 176 185 109 187 267 247 253 242 287 323 357 25 59 96 101 109 119 123 134 156 155 161 184 175 148 161 168 177 184 185 178 181 188 187 185 188
225 196 180 186 205 357 294 14 57 122 125 194 223 299 278 268 282 122 93 37 39 51 72 70 109 111 98 141 157 170 170 147 157 168 182 185 184 186 187 184 179 177 186 193
267 348 185 78 280 239 244 158 62 308 123 307 275 242 216 242 213 169 159 126 92 80 116 104 115 126 133 140 134 141 135 139 158 171 171 169 174 171 173 176 175 182 186 195
168 127 169 273 242 297 240 202 168 167 141 267 297 322 265 157 256 170 160 120 126 86 67 92 132 131 125 110 104 112 144 149 153 139 138 149 144 167 159 163 180 192 196 195
184 179 179 213 206 139 60 233 189 159 183 204 180 98 70 147 153 115 84 74 62 82 63 86 77 105 108 114 112 99 116 130 132 133 149 159 151 144 147 152 106 206 188 202